TimeCST,TemperatureF,Dew PointF,Humidity,Sea Level PressureIn,VisibilityMPH,Wind Direction,Wind SpeedMPH,Gust SpeedMPH,PrecipitationIn,Events,Conditions,WindDirDegrees,DateUTC
12:15 AM,27.9,27.0,96,30.25,7.0,SW,3.5,-,N/A,,Clear,230,2013-11-08 06:15:00
12:35 AM,27.5,26.6,96,30.25,7.0,WSW,4.6,-,N/A,,Clear,250,2013-11-08 06:35:00
12:55 AM,28.0,27.1,96,30.25,10.0,WSW,5.8,-,N/A,,Clear,250,2013-11-08 06:55:00
1:15 AM,28.2,27.3,96,30.26,10.0,West,9.2,-,N/A,,Clear,280,2013-11-08 07:15:00
1:35 AM,30.2,29.3,96,30.26,10.0,WNW,6.9,-,N/A,,Clear,290,2013-11-08 07:35:00
1:55 AM,30.6,29.3,95,30.26,10.0,West,8.1,-,N/A,,Clear,280,2013-11-08 07:55:00
2:15 AM,30.0,28.0,92,30.26,10.0,WNW,5.8,-,N/A,,Clear,290,2013-11-08 08:15:00
2:35 AM,29.8,27.7,92,30.27,10.0,West,6.9,-,N/A,,Clear,280,2013-11-08 08:35:00
2:55 AM,29.3,27.5,93,30.27,10.0,West,9.2,-,N/A,,Clear,270,2013-11-08 08:55:00
3:15 AM,28.8,26.6,92,30.27,10.0,West,8.1,-,N/A,,Clear,270,2013-11-08 09:15:00
3:35 AM,29.3,27.5,93,30.27,10.0,West,9.2,-,N/A,,Clear,270,2013-11-08 09:35:00
3:55 AM,29.3,27.5,93,30.28,10.0,West,9.2,-,N/A,,Clear,270,2013-11-08 09:55:00
4:15 AM,29.3,27.3,92,30.28,10.0,West,8.1,-,N/A,,Clear,270,2013-11-08 10:15:00
4:35 AM,28.4,26.6,93,30.29,10.0,West,8.1,-,N/A,,Clear,260,2013-11-08 10:35:00
4:55 AM,27.9,26.2,94,30.29,10.0,WNW,5.8,-,N/A,,Clear,290,2013-11-08 10:55:00
5:15 AM,28.4,26.6,93,30.29,10.0,WNW,6.9,-,N/A,,Clear,290,2013-11-08 11:15:00
5:35 AM,28.2,26.2,92,30.30,10.0,West,6.9,-,N/A,,Clear,260,2013-11-08 11:35:00
5:55 AM,26.6,24.8,93,30.30,10.0,West,5.8,-,N/A,,Clear,280,2013-11-08 11:55:00
6:15 AM,26.2,24.4,93,30.30,10.0,West,5.8,-,N/A,,Clear,270,2013-11-08 12:15:00
6:35 AM,25.9,24.1,93,30.31,10.0,WSW,3.5,-,N/A,,Clear,250,2013-11-08 12:35:00
6:55 AM,26.4,24.8,94,30.32,10.0,Calm,Calm,-,N/A,,Clear,0,2013-11-08 12:55:00
7:15 AM,28.8,27.3,94,30.32,10.0,West,3.5,-,N/A,,Clear,270,2013-11-08 13:15:00
7:35 AM,31.1,29.3,93,30.33,10.0,West,5.8,-,N/A,,Clear,260,2013-11-08 13:35:00
7:55 AM,32.9,31.1,93,30.33,10.0,WSW,3.5,-,N/A,,Clear,250,2013-11-08 13:55:00
8:15 AM,34.7,31.8,89,30.33,10.0,Calm,Calm,-,N/A,,Clear,0,2013-11-08 14:15:00
8:35 AM,36.7,31.8,83,30.33,10.0,Calm,Calm,-,N/A,,Clear,0,2013-11-08 14:35:00
8:55 AM,39.4,32.0,75,30.33,10.0,Calm,Calm,-,N/A,,Clear,0,2013-11-08 14:55:00
9:15 AM,41.0,32.0,70,30.33,10.0,Calm,Calm,-,N/A,,Clear,0,2013-11-08 15:15:00
9:35 AM,42.6,32.0,66,30.33,10.0,Calm,Calm,-,N/A,,Clear,0,2013-11-08 15:35:00
9:55 AM,43.9,32.9,65,30.33,10.0,Calm,Calm,-,N/A,,Clear,0,2013-11-08 15:55:00
10:15 AM,46.9,34.7,62,30.32,10.0,Calm,Calm,-,N/A,,Clear,0,2013-11-08 16:15:00
10:35 AM,46.6,31.8,56,30.32,10.0,SSW,3.5,-,N/A,,Clear,210,2013-11-08 16:35:00
10:55 AM,47.3,33.8,59,30.32,10.0,WSW,3.5,-,N/A,,Clear,250,2013-11-08 16:55:00
11:15 AM,47.8,30.9,52,30.30,10.0,SSW,4.6,-,N/A,,Clear,200,2013-11-08 17:15:00
11:35 AM,49.3,31.5,50,30.29,10.0,WSW,3.5,-,N/A,,Clear,240,2013-11-08 17:35:00
11:55 AM,50.0,27.9,42,30.28,10.0,South,4.6,-,N/A,,Clear,190,2013-11-08 17:55:00
12:15 PM,50.9,31.3,47,30.27,10.0,WSW,4.6,-,N/A,,Clear,240,2013-11-08 18:15:00
12:35 PM,49.6,31.8,50,30.26,10.0,SW,6.9,-,N/A,,Clear,220,2013-11-08 18:35:00
12:55 PM,49.5,31.6,50,30.25,10.0,SW,6.9,-,N/A,,Clear,230,2013-11-08 18:55:00
1:15 PM,49.3,28.8,45,30.24,10.0,SSW,10.4,-,N/A,,Clear,210,2013-11-08 19:15:00
1:35 PM,48.4,28.8,47,30.23,10.0,SSW,8.1,-,N/A,,Clear,210,2013-11-08 19:35:00
1:55 PM,49.1,29.8,47,30.22,10.0,South,5.8,-,N/A,,Clear,180,2013-11-08 19:55:00
2:15 PM,50.2,28.8,44,30.22,10.0,South,9.2,-,N/A,,Clear,190,2013-11-08 20:15:00
2:35 PM,49.1,28.8,45,30.22,10.0,South,9.2,-,N/A,,Clear,190,2013-11-08 20:35:00
2:55 PM,47.8,28.2,47,30.22,10.0,South,9.2,-,N/A,,Clear,190,2013-11-08 20:55:00
3:15 PM,47.3,28.9,49,30.23,10.0,SSW,8.1,-,N/A,,Clear,210,2013-11-08 21:15:00
3:35 PM,47.8,28.6,47,30.21,10.0,SSW,11.5,-,N/A,,Clear,200,2013-11-08 21:35:00
3:55 PM,47.3,28.8,49,30.20,10.0,SSW,10.4,-,N/A,,Clear,200,2013-11-08 21:55:00
4:15 PM,46.4,28.8,50,30.19,10.0,South,9.2,-,N/A,,Clear,180,2013-11-08 22:15:00
4:35 PM,45.7,29.1,52,30.18,10.0,South,6.9,-,N/A,,Clear,170,2013-11-08 22:35:00
4:55 PM,44.4,29.3,55,30.17,10.0,SSE,6.9,-,N/A,,Clear,160,2013-11-08 22:55:00
5:15 PM,43.7,29.3,57,30.17,10.0,South,10.4,-,N/A,,Clear,170,2013-11-08 23:15:00
5:35 PM,43.2,28.9,57,30.16,10.0,South,9.2,-,N/A,,Clear,170,2013-11-08 23:35:00
5:55 PM,42.3,28.9,59,30.16,10.0,South,9.2,-,N/A,,Clear,170,2013-11-08 23:55:00
6:15 PM,42.3,29.3,60,30.15,10.0,South,10.4,-,N/A,,Clear,170,2013-11-09 00:15:00
6:35 PM,41.9,29.3,61,30.15,10.0,SSE,9.2,-,N/A,,Clear,160,2013-11-09 00:35:00
6:55 PM,41.5,29.3,62,30.15,10.0,SSE,8.1,-,N/A,,Clear,150,2013-11-09 00:55:00
7:15 PM,41.4,29.8,64,30.14,10.0,SSE,9.2,-,N/A,,Clear,160,2013-11-09 01:15:00
7:35 PM,42.1,30.0,62,30.13,10.0,SSE,10.4,-,N/A,,Clear,160,2013-11-09 01:35:00
7:55 PM,42.3,30.0,62,30.13,10.0,South,10.4,-,N/A,,Clear,170,2013-11-09 01:55:00
8:15 PM,42.4,29.1,59,30.13,10.0,South,12.7,17.3,N/A,,Clear,180,2013-11-09 02:15:00
8:35 PM,43.0,28.6,57,30.12,10.0,South,13.8,-,N/A,,Clear,170,2013-11-09 02:35:00
8:55 PM,43.7,28.6,55,30.12,10.0,South,15.0,-,N/A,,Clear,180,2013-11-09 02:55:00
9:15 PM,43.9,28.4,55,30.12,10.0,South,16.1,23.0,N/A,,Clear,180,2013-11-09 03:15:00
9:35 PM,43.9,28.4,55,30.10,10.0,South,17.3,25.3,N/A,,Clear,170,2013-11-09 03:35:00
9:55 PM,43.3,28.0,55,30.09,10.0,South,19.6,26.5,N/A,,Scattered Clouds,180,2013-11-09 03:55:00
10:15 PM,43.5,28.0,54,30.09,10.0,South,19.6,26.5,N/A,,Scattered Clouds,180,2013-11-09 04:15:00
10:35 PM,43.7,27.7,53,30.08,10.0,South,19.6,27.6,N/A,,Mostly Cloudy,180,2013-11-09 04:35:00
10:55 PM,43.9,28.2,54,30.07,10.0,South,18.4,27.6,N/A,,Overcast,190,2013-11-09 04:55:00
11:15 PM,43.7,28.2,54,30.07,10.0,South,19.6,25.3,N/A,,Overcast,190,2013-11-09 05:15:00
11:35 PM,43.0,28.4,56,30.06,10.0,South,17.3,24.2,N/A,,Scattered Clouds,180,2013-11-09 05:35:00
11:55 PM,42.4,28.4,58,30.06,10.0,South,16.1,23.0,N/A,,Clear,180,2013-11-09 05:55:00